Location: Miles
(41.4492°N, 81.6087°W)
Time: 07:12:14
(UTC+00:00)

Transit 2A - Pass Details

Date: 13 September 2024
Orbit: 590 x 960 km, 66.7° (Epoch: 09 October)

Event Time Altitude Azimuth Distance (km) Brightness Sun altitude
Rises 09:24:32 0° 329° (NNW) 3,636 9.4 -19.1°
Reaches altitude 10° 09:27:09 10° 330° (NNW) 2,667 8.7 -18.6°
Maximum altitude 09:33:26 89° 239° (WSW) 907 6.3 -17.5°
Drops below altitude 10° 09:39:12 10° 152° (SSE) 2,460 8.7 -16.5°
Sets 09:41:32 0° 152° (SSE) 3,337 9.4 -16.1°
